• In Latvia
  • List of Countries
  • For 7 days
  • Water Temperature
  • Satellite Maps
  • Weather Map
  • Weather Widgets
  • user-avatar
    Login

    Hourly Weather Winchester

    Today, 20 September, Wednesday

    Time Temperature Precipitation Wind Pressure Humidity
    00:00 +11°C° 0 mm 3 mps 760 mmHg 92%
    01:00 +11°C° 0 mm 3 mps 760 mmHg 93%
    02:00 +10°C° 0 mm 3 mps 760 mmHg 93%
    03:00 +10°C° 0 mm 3 mps 759 mmHg 94%
    04:00 +10°C° 0 mm 3 mps 759 mmHg 94%
    05:00 +10°C° 0 mm 3 mps 759 mmHg 94%
    06:00 +10°C° 0 mm 2 mps 759 mmHg 94%
    07:00 +12°C° 0 mm 3 mps 759 mmHg 89%
    08:00 +14°C° 0 mm 4 mps 759 mmHg 84%
    09:00 +15°C° 0 mm 5 mps 759 mmHg 80%
    10:00 +16°C° 0 mm 5 mps 759 mmHg 77%
    11:00 +16°C° 0 mm 6 mps 758 mmHg 75%
    12:00 +17°C° 0 mm 6 mps 758 mmHg 72%
    13:00 +17°C° 0 mm 6 mps 758 mmHg 72%
    14:00 +17°C° 0 mm 6 mps 758 mmHg 73%
    15:00 +17°C° 0 mm 6 mps 757 mmHg 73%
    16:00 +16°C° 0 mm 6 mps 757 mmHg 77%
    17:00 +15°C° 0 mm 5 mps 757 mmHg 80%
    18:00 +14°C° 0 mm 5 mps 757 mmHg 84%
    19:00 +14°C° 0 mm 5 mps 757 mmHg 85%
    20:00 +14°C° 0 mm 5 mps 756 mmHg 85%
    21:00 +14°C° 0 mm 5 mps 756 mmHg 86%
    22:00 +14°C° 0 mm 5 mps 756 mmHg 86%
    23:00 +14°C° 0 mm 5 mps 756 mmHg 87%

    Tomorrow, 21 September, Thursday

    Time Temperature Precipitation Wind Pressure Humidity
    00:00 +14°C° 0 mm 5 mps 756 mmHg 87%
    01:00 +14°C° 0 mm 5 mps 755 mmHg 88%
    02:00 +14°C° 0 mm 5 mps 755 mmHg 90%
    03:00 +13°C° 0 mm 5 mps 755 mmHg 91%
    04:00 +13°C° 0 mm 5 mps 754 mmHg 91%
    05:00 +13°C° 0 mm 5 mps 754 mmHg 90%
    06:00 +13°C° 0 mm 6 mps 754 mmHg 90%
    07:00 +14°C° 0 mm 6 mps 754 mmHg 85%
    08:00 +14°C° 0 mm 7 mps 754 mmHg 80%
    09:00 +15°C° 0 mm 7 mps 754 mmHg 76%
    10:00 +16°C° 0.6 mm 7 mps 754 mmHg 76%
    11:00 +16°C° 0.6 mm 7 mps 754 mmHg 77%
    12:00 +16°C° 0.6 mm 7 mps 753 mmHg 77%
    13:00 +16°C° 1.5 mm 6 mps 754 mmHg 82%
    14:00 +15°C° 1.5 mm 6 mps 754 mmHg 87%
    15:00 +14°C° 1.5 mm 5 mps 754 mmHg 92%
    16:00 +14°C° 0.3 mm 5 mps 754 mmHg 91%
    17:00 +14°C° 0.3 mm 5 mps 755 mmHg 90%
    18:00 +13°C° 0.3 mm 5 mps 755 mmHg 89%
    19:00 +12°C° 0 mm 5 mps 756 mmHg 90%
    20:00 +10°C° 0 mm 5 mps 756 mmHg 92%
    21:00 +10°C° 0 mm 4 mps 757 mmHg 93%
    22:00 +10°C° 0 mm 4 mps 758 mmHg 93%
    23:00 +8°C° 0 mm 4 mps 758 mmHg 93%

    Day after tomorrow, 22 September, Friday

    Time Temperature Precipitation Wind Pressure Humidity
    00:00 +8°C° 0 mm 3 mps 759 mmHg 93%
    01:00 +8°C° 0 mm 3 mps 759 mmHg 93%
    02:00 +8°C° 0 mm 3 mps 759 mmHg 93%
    03:00 +8°C° 0 mm 2 mps 759 mmHg 93%
    04:00 +8°C° 0 mm 2 mps 759 mmHg 93%
    05:00 +8°C° 0 mm 2 mps 759 mmHg 93%
    06:00 +8°C° 0 mm 2 mps 760 mmHg 93%
    07:00 +10°C° 0 mm 3 mps 760 mmHg 88%
    08:00 +12°C° 0 mm 4 mps 760 mmHg 82%
    09:00 +14°C° 0 mm 5 mps 760 mmHg 77%
    10:00 +15°C° 0 mm 5 mps 760 mmHg 73%
    11:00 +16°C° 0 mm 6 mps 760 mmHg 70%
    12:00 +17°C° 0 mm 7 mps 760 mmHg 67%
    13:00 +17°C° 0 mm 7 mps 760 mmHg 68%
    14:00 +16°C° 0 mm 7 mps 760 mmHg 69%
    15:00 +16°C° 0 mm 7 mps 760 mmHg 71%
    16:00 +16°C° 0 mm 7 mps 760 mmHg 75%
    17:00 +15°C° 0 mm 6 mps 760 mmHg 79%
    18:00 +14°C° 0 mm 6 mps 760 mmHg 83%
    19:00 +14°C° 0.1 mm 6 mps 760 mmHg 85%
    20:00 +14°C° 0.1 mm 5 mps 760 mmHg 87%
    21:00 +14°C° 0.1 mm 5 mps 761 mmHg 89%
    22:00 +14°C° 0 mm 5 mps 761 mmHg 90%
    23:00 +14°C° 0 mm 4 mps 761 mmHg 92%

    23 September, Saturday

    Time Temperature Precipitation Wind Pressure Humidity
    00:00 +13°C° 0 mm 4 mps 761 mmHg 94%
    01:00 +13°C° 0 mm 4 mps 761 mmHg 94%
    02:00 +13°C° 0 mm 4 mps 761 mmHg 95%
    03:00 +13°C° 0 mm 4 mps 760 mmHg 95%
    04:00 +12°C° 0 mm 4 mps 760 mmHg 95%
    05:00 +12°C° 0 mm 4 mps 760 mmHg 95%
    06:00 +12°C° 0 mm 3 mps 760 mmHg 95%
    07:00 +13°C° 0 mm 4 mps 760 mmHg 89%
    08:00 +15°C° 0 mm 5 mps 760 mmHg 83%
    09:00 +16°C° 0 mm 5 mps 760 mmHg 77%
    10:00 +17°C° 0 mm 5 mps 760 mmHg 70%
    11:00 +17°C° 0 mm 6 mps 760 mmHg 63%
    12:00 +19°C° 0 mm 6 mps 760 mmHg 56%
    13:00 +19°C° 0 mm 6 mps 760 mmHg 55%
    14:00 +19°C° 0 mm 5 mps 760 mmHg 55%
    15:00 +19°C° 0 mm 5 mps 759 mmHg 54%
    16:00 +16°C° 0 mm 5 mps 759 mmHg 60%
    17:00 +15°C° 0 mm 4 mps 759 mmHg 67%
    18:00 +13°C° 0 mm 4 mps 759 mmHg 73%
    19:00 +13°C° 0 mm 4 mps 759 mmHg 75%
    20:00 +13°C° 0 mm 4 mps 759 mmHg 77%
    21:00 +13°C° 0 mm 4 mps 759 mmHg 80%
    22:00 +13°C° 0 mm 4 mps 759 mmHg 79%
    23:00 +14°C° 0 mm 4 mps 759 mmHg 78%

    24 September, Sunday

    Time Temperature Precipitation Wind Pressure Humidity
    00:00 +14°C° 0 mm 4 mps 759 mmHg 77%
    01:00 +14°C° 0 mm 4 mps 759 mmHg 78%
    02:00 +14°C° 0 mm 4 mps 759 mmHg 80%
    03:00 +13°C° 0 mm 4 mps 758 mmHg 81%
    04:00 +13°C° 0 mm 4 mps 758 mmHg 81%
    05:00 +14°C° 0 mm 4 mps 758 mmHg 80%
    06:00 +14°C° 0 mm 4 mps 758 mmHg 80%
    07:00 +15°C° 0 mm 4 mps 759 mmHg 78%
    08:00 +17°C° 0 mm 4 mps 759 mmHg 77%
    09:00 +18°C° 0 mm 4 mps 759 mmHg 75%
    10:00 +18°C° 0.3 mm 4 mps 759 mmHg 75%
    11:00 +19°C° 0.3 mm 3 mps 759 mmHg 76%
    12:00 +19°C° 0.3 mm 3 mps 759 mmHg 76%
    13:00 +19°C° 0.7 mm 3 mps 759 mmHg 78%
    14:00 +18°C° 0.7 mm 3 mps 759 mmHg 81%
    15:00 +18°C° 0.7 mm 3 mps 759 mmHg 83%
    16:00 +17°C° 0 mm 3 mps 759 mmHg 86%
    17:00 +17°C° 0 mm 2 mps 759 mmHg 89%
    18:00 +16°C° 0 mm 2 mps 759 mmHg 91%
    19:00 +16°C° 0 mm 2 mps 760 mmHg 91%
    20:00 +16°C° 0 mm 1 mps 760 mmHg 92%
    21:00 +15°C° 0 mm 1 mps 760 mmHg 92%
    22:00 +15°C° 0.5 mm 1 mps 760 mmHg 92%
    23:00 +15°C° 0.5 mm 1 mps 760 mmHg 93%

    25 September, Monday

    Time Temperature Precipitation Wind Pressure Humidity
    00:00 +16°C° 0.5 mm 1 mps 760 mmHg 93%
    01:00 +15°C° 0.6 mm 1 mps 760 mmHg 94%
    02:00 +15°C° 0.6 mm 1 mps 759 mmHg 94%
    03:00 +15°C° 0.6 mm 1 mps 759 mmHg 95%
    04:00 +15°C° 0.5 mm 2 mps 759 mmHg 95%
    05:00 +15°C° 0.5 mm 2 mps 759 mmHg 96%
    06:00 +15°C° 0.5 mm 2 mps 759 mmHg 96%
    07:00 +16°C° 0 mm 2 mps 759 mmHg 94%
    08:00 +16°C° 0 mm 2 mps 760 mmHg 93%
    09:00 +17°C° 0 mm 2 mps 760 mmHg 91%
    10:00 +18°C° 0 mm 2 mps 760 mmHg 87%
    11:00 +19°C° 0 mm 2 mps 760 mmHg 84%
    12:00 +20°C° 0 mm 2 mps 760 mmHg 80%
    13:00 +20°C° 0 mm 2 mps 760 mmHg 79%
    14:00 +20°C° 0 mm 2 mps 760 mmHg 78%
    15:00 +21°C° 0 mm 2 mps 760 mmHg 77%
    16:00 +20°C° 0 mm 2 mps 760 mmHg 80%
    17:00 +19°C° 0 mm 2 mps 760 mmHg 83%
    18:00 +18°C° 0 mm 2 mps 760 mmHg 87%
    19:00 +17°C° 0 mm 2 mps 760 mmHg 87%
    20:00 +16°C° 0 mm 2 mps 760 mmHg 88%
    21:00 +16°C° 0 mm 2 mps 760 mmHg 89%
    22:00 +15°C° 0 mm 2 mps 760 mmHg 89%
    23:00 +14°C° 0 mm 3 mps 760 mmHg 90%
    Show more